Flag for Russia Weather past 2 weeks in Saint-Petersburg, Russia

Now
55 °F

Passing clouds.


Feels Like: 53 °F
Forecast: 58 / 68 °F
Wind: 10 mph from West

Location: St. Petersburg

Current Time: Aug 1, 2015 at 5:28:29 AM

Latest Report: Aug 1, 2015 at 5:00 AM


Visibility: N/A

Pressure: 29.71 "Hg

Humidity: 94%

Dew point: 54 °F

Location of Saint-PetersburgLocation

Historic Weather in Saint-Petersburg — Graph

°F

Saint-Petersburg temperature yesterday

Maximum temperature yesterday: 63 °F (at 11:30 AM)
Minimum temperature yesterday: 52 °F (at 1:00 AM)
Average temperature yesterday: 57 °F

Past Weeks' High & Low Weather Summary

 TemperatureHumidityPressure
High75 °F (Jul 18, 4:30 PM)100% (Jul 17, 10:00 PM)29.98 "Hg (Jul 17, 10:00 PM)
Low50 °F (Jul 17, 4:00 AM)43% (Jul 21, 4:00 PM)29.50 "Hg (Jul 20, 2:00 PM)
Average62 °F78%29.69 "Hg
* Reported Jul 17 4:00 AM — Aug 1 4:00 AM, Saint-Petersburg, Weather by CustomWeather, © 2015

Note: Actual official high and low records may vary slightly from our data, if they occured in-between our weather recording intervals... More about our weather records

Advertising

Saint-Petersburg weather history for previous 24 hours

 ConditionsComfort  
Time TempWeatherWind HumidityBarometerVisibility
4:00 AM
Sat, Aug 1
57 °FPassing clouds.10 mph94%29.71 "HgN/A
3:30 AM59 °FPassing clouds.8 mph88%29.71 "HgN/A
3:00 AM57 °FSprinkles. Passing clouds.8 mph100%29.71 "HgN/A
2:30 AM57 °FSprinkles. Passing clouds.6 mph100%29.68 "HgN/A
2:00 AM57 °FPassing clouds.6 mph94%29.68 "HgN/A
1:30 AM57 °FPassing clouds.6 mph94%29.68 "HgN/A
12:30 AM57 °FPassing clouds.6 mph94%29.68 "HgN/A
12:00 AM57 °FPassing clouds.6 mph94%29.65 "HgN/A
11:30 PM
Fri, Jul 31
57 °FPassing clouds.3 mph94%29.65 "HgN/A
11:00 PM57 °FPassing clouds.3 mph94%29.65 "HgN/A
10:30 PM57 °FScattered clouds.1 mph94%29.65 "HgN/A
10:00 PM55 °FScattered clouds.1 mph100%29.65 "HgN/A
9:30 PM57 °FScattered clouds.3 mph94%29.65 "HgN/A
9:00 PM57 °FScattered clouds.1 mph94%29.62 "HgN/A
8:30 PM59 °FBroken clouds.3 mph88%29.62 "HgN/A
8:00 PM61 °FPartly sunny.3 mph88%29.62 "HgN/A
7:30 PM61 °FPartly sunny.3 mph88%29.62 "HgN/A
7:00 PM61 °FPartly sunny.3 mph88%29.62 "HgN/A
6:30 PM57 °FSprinkles. Partly sunny.1 mph94%29.62 "Hg6 mi
6:00 PM59 °FPartly sunny.3 mph88%29.62 "HgN/A
5:30 PM59 °FSprinkles. Partly sunny.3 mph88%29.62 "HgN/A
5:00 PM59 °FSprinkles. Partly sunny.3 mph88%29.62 "HgN/A
4:30 PM59 °FSprinkles. Partly sunny.3 mph88%29.59 "HgN/A
4:00 PM59 °FSprinkles. Partly sunny.3 mph88%29.59 "HgN/A
3:30 PM59 °FSprinkles. Partly sunny.3 mph88%29.59 "HgN/A
3:00 PM59 °FSprinkles. Partly sunny.6 mph88%29.59 "HgN/A
2:30 PM59 °FSprinkles. Partly sunny.8 mph88%29.59 "Hg6 mi
2:00 PM59 °FSprinkles. Partly sunny.6 mph82%29.59 "HgN/A
1:30 PM59 °FSprinkles. Partly sunny.6 mph88%29.59 "HgN/A
1:00 PM59 °FSprinkles. Partly sunny.6 mph88%29.59 "HgN/A
12:30 PM59 °FSprinkles. Partly sunny.6 mph82%29.59 "HgN/A
12:00 PM61 °FPartly sunny.8 mph77%29.59 "HgN/A
11:30 AM63 °FPartly sunny.8 mph73%29.59 "HgN/A
11:00 AM61 °FPartly sunny.6 mph77%29.59 "HgN/A
10:30 AM59 °FPartly sunny.6 mph82%29.59 "HgN/A
10:00 AM59 °FPartly sunny.6 mph82%29.59 "HgN/A
9:30 AM61 °FBroken clouds.8 mph83%29.59 "HgN/A
9:00 AM59 °FScattered clouds.3 mph82%29.59 "HgN/A
8:30 AM57 °FScattered clouds.3 mph88%29.56 "HgN/A
8:00 AM55 °FScattered clouds.1 mph94%29.56 "HgN/A
7:30 AM55 °FScattered clouds.6 mph94%29.56 "HgN/A
7:00 AM54 °FSunny.3 mph94%29.56 "Hg10 mi
6:30 AM54 °FSunny.3 mph88%29.56 "Hg10 mi
6:00 AM52 °FSunny.3 mph94%29.56 "Hg10 mi
5:30 AM52 °FClear.3 mph94%29.56 "Hg10 mi
5:00 AM52 °FPassing clouds.3 mph94%29.56 "HgN/A
Weather by CustomWeather, © 2015

See weather overviewHow to use our weather pages